Weather History for Clemson, SC

Change the Weather History Date:

Saturday, February 22, 2014

  Actual Average Record
Temperature  
Mean Temperature 52 °F -  
Max Temperature 64 °F 59 °F 73 °F (1930)
Min Temperature 41 °F 35 °F 10 °F (1963)
Degree Days  
Heating Degree Days 12    
Growing Degree Days 2 (Base 50)    
Moisture  
Dew Point 26 °F    
Average Humidity 41    
Maximum Humidity 70    
Minimum Humidity 16    
Precipitation  
Precipitation 0.00 in - - ()
Sea Level Pressure  
Sea Level Pressure 30.12 in    
Wind  
Wind Speed 3 mph (NNW)    
Max Wind Speed 6 mph    
Max Gust Speed -    
Visibility 10 miles    
Events      
Averages and records for this station are not official NWS values.
T = Trace of Precipitation, MM = Missing Value Source: NWS Daily Summary

Daily Weather History Graph

Daily Weather History Graph

Search for Another Location

Airport:

Trip Planner

Search our weather history database for the weather conditions in past years. The results will help you decide how hot, cold, wet, or windy it might be!

Date:

Astronomy

Feb. 22, 2014 Rise Set
Actual Time 7:09 AM EST 6:21 PM EST
Civil Twilight 6:43 AM EST 6:46 PM EST
Nautical Twilight 6:14 AM EST 7:16 PM EST
Astronomical Twilight 5:45 AM EST 7:45 PM EST
Moon 12:57 AM EST 11:37 AM EST
Length of Visible Light 12h 03m
Length of Day
11h 12m
Waning Gibbous, 50% of the Moon is Illuminated
Feb 22
Waning Gibbous
Feb 22
Last Quarter
Mar 1
New
Mar 8
First Quarter
Mar 16
Full

Hourly Weather History & Observations

Time (EST) Temp. Windchill Dew Point Humidity Pressure Visibility Wind Dir Wind Speed Gust Speed Precip Events Conditions
12:54 AM 45.0 °F 41.8 °F 19.9 °F 37% 30.06 in 10.0 mi West 5.8 mph - N/A   Clear
1:54 AM 46.0 °F 43.1 °F 19.0 °F 34% 30.06 in 10.0 mi NW 5.8 mph - N/A   Clear
2:54 AM 41.0 °F - 28.9 °F 62% 30.07 in 10.0 mi Calm Calm - N/A   Clear
3:54 AM 43.0 °F - 28.9 °F 58% 30.08 in 10.0 mi Calm Calm - N/A   Clear
4:54 AM 41.0 °F - 30.0 °F 65% 30.09 in 10.0 mi Calm Calm - N/A   Clear
5:54 AM 42.1 °F - 28.0 °F 58% 30.12 in 10.0 mi Calm Calm - N/A   Clear
6:54 AM 42.1 °F - 30.9 °F 65% 30.14 in 10.0 mi Calm Calm - N/A   Clear
7:54 AM 42.1 °F 40.2 °F 33.1 °F 70% 30.16 in 10.0 mi NW 3.5 mph - N/A   Clear
8:54 AM 44.1 °F 42.5 °F 33.1 °F 65% 30.19 in 10.0 mi NNW 3.5 mph - N/A   Clear
9:54 AM 48.9 °F - 34.0 °F 56% 30.20 in 10.0 mi Calm Calm - N/A   Clear
10:54 AM 52.0 °F - 30.9 °F 45% 30.20 in 10.0 mi Calm Calm - N/A   Clear
11:54 AM 57.0 °F - 21.9 °F 26% 30.19 in 10.0 mi ENE 3.5 mph - N/A   Clear
12:54 PM 60.1 °F - 21.9 °F 23% 30.16 in 10.0 mi East 4.6 mph - N/A   Clear
1:54 PM 63.0 °F - 21.0 °F 20% 30.12 in 10.0 mi Calm Calm - N/A   Clear
2:54 PM 64.9 °F - 18.0 °F 16% 30.11 in 10.0 mi Variable 4.6 mph - N/A   Clear
3:54 PM 64.0 °F - 17.1 °F 16% 30.09 in 10.0 mi Variable 4.6 mph - N/A   Clear
4:54 PM 64.0 °F - 19.0 °F 18% 30.08 in 10.0 mi Variable 4.6 mph - N/A   Clear
5:54 PM 62.1 °F - 19.9 °F 20% 30.09 in 10.0 mi Variable 3.5 mph - N/A   Clear
6:54 PM 59.0 °F - 21.0 °F 23% 30.10 in 10.0 mi Calm Calm - N/A   Clear
7:54 PM 57.0 °F - 21.9 °F 26% 30.11 in 10.0 mi Calm Calm - N/A   Clear
8:54 PM 54.0 °F - 24.1 °F 31% 30.12 in 10.0 mi Calm Calm - N/A   Clear
9:54 PM 51.1 °F - 28.0 °F 41% 30.12 in 10.0 mi Calm Calm - N/A   Clear
10:54 PM 48.0 °F - 27.0 °F 44% 30.12 in 10.0 mi NNW 3.5 mph - N/A   Clear
11:54 PM 48.0 °F - 36.0 °F 63% 30.11 in 10.0 mi Calm Calm - N/A   Clear